�������l�o���
Date,Time,MP-1(��Sv/h),MP-2(��Sv/h),MP-3(��Sv/h),MP-4(��Sv/h),MP-5(��Sv/h),MP-6(��Sv/h),MP-7(��Sv/h),MP-8(��Sv/h),����,����(m/s),���J
2018/04/09,00:00,0.854,1.428,0.893,1.665,1.140,0.480,0.849,0.815,���k��,5.4,��
2018/04/09,00:10,0.852,1.430,0.890,1.665,1.142,0.479,0.848,0.814,��,2.6,��
2018/04/09,00:20,0.853,1.428,0.891,1.668,1.140,0.481,0.851,0.816,���쐼,1.7,��
2018/04/09,00:30,0.853,1.428,0.892,1.665,1.143,0.481,0.850,0.815,���쐼,4.1,��
2018/04/09,00:40,0.851,1.427,0.893,1.665,1.142,0.480,0.849,0.816,�쐼,2.3,��
2018/04/09,00:50,0.853,1.428,0.893,1.666,1.142,0.480,0.848,0.813,���쐼,2.5,��
2018/04/09,01:00,0.854,1.428,0.892,1.666,1.143,0.479,0.849,0.814,��,4.7,��
2018/04/09,01:10,0.854,1.428,0.891,1.665,1.142,0.480,0.848,0.814,��,5.4,��
2018/04/09,01:20,0.853,1.427,0.894,1.666,1.141,0.480,0.851,0.816,���쐼,4.2,��
2018/04/09,01:30,0.852,1.427,0.891,1.663,1.139,0.479,0.850,0.817,���쐼,2.6,��
2018/04/09,01:40,0.854,1.426,0.893,1.665,1.140,0.479,0.849,0.814,���쐼,2.0,��
2018/04/09,01:50,0.853,1.426,0.892,1.664,1.141,0.479,0.849,0.815,���쐼,2.5,��
2018/04/09,02:00,0.854,1.429,0.890,1.667,1.141,0.481,0.849,0.814,�쐼,2.3,��
2018/04/09,02:10,0.852,1.428,0.890,1.664,1.141,0.480,0.848,0.814,���쐼,0.6,��
2018/04/09,02:20,0.854,1.428,0.890,1.664,1.142,0.479,0.849,0.815,�쐼,1.1,��
2018/04/09,02:30,0.853,1.429,0.893,1.665,1.141,0.478,0.849,0.814,��쓌,1.1,��
2018/04/09,02:40,0.854,1.431,0.890,1.663,1.139,0.480,0.848,0.815,��,1.1,��
2018/04/09,02:50,0.853,1.427,0.890,1.667,1.139,0.480,0.848,0.814,��쓌,1.5,��
2018/04/09,03:00,0.852,1.429,0.891,1.665,1.139,0.479,0.849,0.816,-,CALM,��
2018/04/09,03:10,0.852,1.427,0.894,1.665,1.143,0.481,0.848,0.815,-,CALM,��
2018/04/09,03:20,0.852,1.429,0.890,1.665,1.140,0.479,0.850,0.815,�쓌,1.5,��
2018/04/09,03:30,0.853,1.427,0.892,1.666,1.142,0.480,0.849,0.814,��쓌,1.7,��
2018/04/09,03:40,0.855,1.430,0.893,1.667,1.141,0.481,0.849,0.814,��,2.0,��
2018/04/09,03:50,0.853,1.430,0.891,1.661,1.141,0.481,0.849,0.815,��쐼,3.7,��
2018/04/09,04:00,0.855,1.428,0.892,1.663,1.142,0.478,0.849,0.814,��쐼,4.1,�L
2018/04/09,04:10,0.853,1.430,0.891,1.665,1.140,0.480,0.848,0.814,��쐼,3.3,��
2018/04/09,04:20,0.852,1.428,0.891,1.664,1.141,0.478,0.850,0.814,��쐼,2.8,��
2018/04/09,04:30,0.853,1.429,0.889,1.663,1.142,0.478,0.847,0.816,��,2.3,��
2018/04/09,04:40,0.852,1.429,0.890,1.665,1.141,0.480,0.848,0.815,��,4.7,��
2018/04/09,04:50,0.852,1.427,0.890,1.663,1.141,0.480,0.849,0.815,��,5.3,��
2018/04/09,05:00,0.851,1.429,0.891,1.665,1.142,0.479,0.847,0.813,��,7.0,��
2018/04/09,05:10,0.855,1.431,0.890,1.665,1.140,0.480,0.850,0.815,��,6.4,��
2018/04/09,05:20,0.852,1.429,0.891,1.662,1.140,0.480,0.848,0.814,��,6.7,��
2018/04/09,05:30,0.851,1.427,0.889,1.664,1.140,0.480,0.848,0.812,��,5.8,��
2018/04/09,05:40,0.850,1.428,0.891,1.664,1.140,0.480,0.849,0.814,��,6.2,��
2018/04/09,05:50,0.855,1.429,0.889,1.661,1.140,0.480,0.849,0.814,��,6.5,��
2018/04/09,06:00,0.853,1.427,0.889,1.663,1.144,0.480,0.850,0.813,��쐼,6.3,��
2018/04/09,06:10,0.852,1.427,0.888,1.665,1.142,0.480,0.849,0.813,�쐼,5.6,��
2018/04/09,06:20,0.850,1.430,0.891,1.665,1.142,0.481,0.847,0.814,��쐼,5.7,��
2018/04/09,06:30,0.853,1.431,0.890,1.665,1.140,0.480,0.850,0.816,�쐼,4.7,��
2018/04/09,06:40,0.853,1.429,0.891,1.663,1.138,0.480,0.849,0.814,�쐼,2.0,��
2018/04/09,06:50,0.853,1.428,0.892,1.667,1.143,0.480,0.850,0.816,�쐼,2.0,��
2018/04/09,07:00,0.856,1.428,0.892,1.667,1.143,0.480,0.848,0.814,��,1.5,��
2018/04/09,07:10,0.853,1.429,0.892,1.661,1.142,0.481,0.850,0.816,��쓌,2.0,��
2018/04/09,07:20,0.854,1.432,0.891,1.666,1.141,0.482,0.852,0.816,��,4.0,��
2018/04/09,07:30,0.854,1.430,0.891,1.664,1.143,0.481,0.852,0.815,��쓌,5.6,��
2018/04/09,07:40,0.854,1.431,0.893,1.662,1.143,0.481,0.850,0.815,��쓌,4.6,��
2018/04/09,07:50,0.855,1.430,0.890,1.664,1.145,0.481,0.851,0.815,��쓌,4.7,��
2018/04/09,08:00,0.854,1.433,0.893,1.662,1.144,0.479,0.852,0.817,��쓌,5.5,��
2018/04/09,08:10,0.854,1.428,0.893,1.662,1.142,0.479,0.852,0.816,��,5.7,��
2018/04/09,08:20,0.855,1.430,0.892,1.663,1.146,0.479,0.851,0.817,��,6.6,��
2018/04/09,08:30,0.858,1.427,0.892,1.662,1.145,0.478,0.852,0.817,��쓌,6.6,��
2018/04/09,08:40,0.855,1.431,0.895,1.664,1.147,0.479,0.847,0.817,��,5.7,��
2018/04/09,08:50,0.857,1.430,0.891,1.666,1.146,0.479,0.847,0.817,��,6.7,��
2018/04/09,09:00,0.856,1.429,0.891,1.665,1.145,0.477,0.850,0.814,��,8.4,��
2018/04/09,09:10,0.858,1.432,0.895,1.665,1.141,0.480,0.850,0.816,��쓌,9.0,��
2018/04/09,09:20,0.856,1.432,0.892,1.662,1.142,0.480,0.849,0.814,��쓌,10.6,��
2018/04/09,09:30,0.859,1.432,0.894,1.661,1.144,0.481,0.851,0.814,��쓌,9.7,��
2018/04/09,09:40,0.857,1.431,0.893,1.664,1.147,0.483,0.851,0.813,��쓌,9.5,��
2018/04/09,09:50,0.859,1.432,0.893,1.663,1.144,0.483,0.851,0.814,��쓌,9.4,��
2018/04/09,10:00,0.859,1.434,0.895,1.667,1.144,0.481,0.851,0.814,��쓌,10.2,��
2018/04/09,10:10,0.860,1.434,0.896,1.664,1.147,0.480,0.850,0.814,��쓌,9.3,��
2018/04/09,10:20,0.859,1.432,0.896,1.666,1.144,0.483,0.852,0.814,��쓌,11.4,��
2018/04/09,10:30,0.856,1.435,0.893,1.668,1.145,0.482,0.850,0.814,��쓌,9.8,��
2018/04/09,10:40,0.862,1.433,0.896,1.666,1.146,0.485,0.851,0.814,��쓌,11.6,��
2018/04/09,10:50,0.862,1.432,0.895,1.665,1.144,0.483,0.851,0.813,��쓌,10.9,��
2018/04/09,11:00,0.862,1.434,0.895,1.667,1.148,0.484,0.852,0.815,��쓌,8.3,��
2018/04/09,11:10,0.860,1.437,0.895,1.669,1.147,0.483,0.853,0.815,��,10.9,��
2018/04/09,11:20,0.862,1.439,0.895,1.667,1.151,0.483,0.853,0.815,��,11.6,��
2018/04/09,11:30,0.864,1.437,0.896,1.666,1.150,0.483,0.853,0.815,��쓌,10.0,��
2018/04/09,11:40,0.861,1.439,0.895,1.666,1.149,0.484,0.851,0.816,��쓌,10.2,��
2018/04/09,11:50,0.860,1.439,0.895,1.665,1.149,0.484,0.853,0.814,��쓌,9.8,�L
2018/04/09,12:00,0.860,1.440,0.895,1.668,1.149,0.484,0.851,0.815,��쓌,8.4,�L
2018/04/09,12:10,0.863,1.441,0.896,1.666,1.150,0.484,0.851,0.815,��쓌,5.4,��
2018/04/09,12:20,0.864,1.440,0.896,1.672,1.151,0.484,0.855,0.814,���k��,3.2,��
2018/04/09,12:30,0.866,1.440,0.898,1.668,1.150,0.485,0.854,0.816,��,4.5,��
2018/04/09,12:40,0.866,1.441,0.899,1.670,1.155,0.485,0.852,0.816,���k��,10.0,��
2018/04/09,12:50,0.866,1.441,0.897,1.668,1.152,0.486,0.853,0.818,��,7.4,��
2018/04/09,13:00,0.865,1.445,0.898,1.669,1.153,0.485,0.856,0.816,�k��,7.8,��
2018/04/09,13:10,0.866,1.442,0.896,1.669,1.152,0.484,0.853,0.816,���k��,7.0,��
2018/04/09,13:20,0.867,1.443,0.897,1.669,1.155,0.485,0.855,0.817,���k��,6.3,��
2018/04/09,13:30,0.868,1.444,0.896,1.671,1.154,0.484,0.856,0.814,���k��,6.7,��
2018/04/09,13:40,0.865,1.443,0.898,1.671,1.153,0.486,0.855,0.817,�k��,7.5,��
2018/04/09,13:50,0.866,1.442,0.899,1.671,1.156,0.485,0.855,0.818,�k��,7.5,��
2018/04/09,14:00,0.868,1.442,0.898,1.672,1.154,0.486,0.856,0.818,���k��,8.9,��
2018/04/09,14:10,0.865,1.437,0.900,1.673,1.155,0.484,0.855,0.817,���k��,8.1,��
2018/04/09,14:20,0.869,1.446,0.900,1.673,1.154,0.485,0.854,0.817,���k��,8.4,��
2018/04/09,14:30,0.867,1.444,0.900,1.674,1.155,0.484,0.854,0.816,���k��,8.5,��
2018/04/09,14:40,0.868,1.442,0.899,1.674,1.156,0.484,0.854,0.816,���k��,8.0,��
2018/04/09,14:50,0.868,1.447,0.899,1.674,1.156,0.486,0.856,0.817,��,9.5,�L
2018/04/09,15:00,0.867,1.442,0.900,1.672,1.156,0.484,0.855,0.817,���k��,8.7,��
2018/04/09,15:10,0.868,1.445,0.900,1.675,1.156,0.484,0.855,0.817,��,8.1,��
2018/04/09,15:20,0.868,1.446,0.901,1.672,1.157,0.485,0.857,0.816,���쐼,4.6,��
2018/04/09,15:30,0.867,1.444,0.900,1.670,1.157,0.486,0.854,0.817,��,6.5,��
2018/04/09,15:40,0.868,1.443,0.900,1.673,1.155,0.486,0.855,0.816,���쐼,7.7,��
2018/04/09,15:50,0.867,1.445,0.899,1.673,1.157,0.486,0.853,0.816,���k��,8.3,��
2018/04/09,16:00,0.866,1.448,0.899,1.672,1.156,0.487,0.854,0.817,��,9.7,��
2018/04/09,16:10,0.867,1.447,0.901,1.671,1.156,0.485,0.854,0.817,��,7.3,��
2018/04/09,16:20,0.864,1.445,0.898,1.674,1.157,0.486,0.855,0.816,���k��,12.0,��
2018/04/09,16:30,0.867,1.446,0.901,1.673,1.156,0.487,0.854,0.817,���k��,10.7,��
2018/04/09,16:40,0.865,1.447,0.901,1.672,1.156,0.486,0.853,0.818,���k��,13.8,��
2018/04/09,16:50,0.863,1.445,0.900,1.676,1.157,0.486,0.853,0.817,��,10.2,��
2018/04/09,17:00,0.866,1.450,0.899,1.675,1.158,0.486,0.855,0.817,��,12.5,��
2018/04/09,17:10,0.867,1.449,0.900,1.676,1.157,0.487,0.853,0.817,��,9.9,��
2018/04/09,17:20,0.868,1.448,0.902,1.678,1.156,0.486,0.853,0.818,��,9.0,��
2018/04/09,17:30,0.867,1.449,0.902,1.679,1.156,0.484,0.851,0.818,��,5.8,��
2018/04/09,17:40,0.867,1.449,0.900,1.679,1.153,0.484,0.850,0.819,��,4.8,��
2018/04/09,17:50,0.868,1.447,0.898,1.679,1.156,0.485,0.852,0.818,���k��,3.4,��
2018/04/09,18:00,0.868,1.449,0.900,1.680,1.154,0.486,0.851,0.819,��,4.9,��
2018/04/09,18:10,0.865,1.447,0.902,1.679,1.157,0.484,0.850,0.820,���k��,5.5,��
2018/04/09,18:20,0.868,1.449,0.902,1.680,1.159,0.484,0.851,0.819,�k��,9.4,��
2018/04/09,18:30,0.867,1.446,0.900,1.676,1.157,0.485,0.851,0.818,���k��,7.6,��
2018/04/09,18:40,0.868,1.446,0.901,1.678,1.157,0.485,0.852,0.817,���k��,7.1,��
2018/04/09,18:50,0.867,1.448,0.899,1.682,1.159,0.484,0.852,0.818,��,6.6,��
2018/04/09,19:00,0.868,1.445,0.901,1.679,1.155,0.483,0.850,0.819,��,5.7,��
2018/04/09,19:10,0.867,1.447,0.900,1.678,1.157,0.482,0.853,0.817,��,6.0,��
2018/04/09,19:20,0.865,1.445,0.899,1.682,1.155,0.483,0.851,0.818,��,6.7,��
2018/04/09,19:30,0.865,1.449,0.903,1.679,1.158,0.484,0.853,0.816,���k��,7.1,��
2018/04/09,19:40,0.865,1.446,0.903,1.682,1.160,0.483,0.854,0.818,���k��,6.7,��
2018/04/09,19:50,0.867,1.445,0.900,1.682,1.157,0.481,0.853,0.820,��,7.5,��
2018/04/09,20:00,0.864,1.444,0.903,1.679,1.155,0.483,0.855,0.816,��,6.7,��
2018/04/09,20:10,0.864,1.444,0.901,1.681,1.158,0.484,0.853,0.817,���k��,5.2,��
2018/04/09,20:20,0.865,1.445,0.902,1.678,1.157,0.483,0.853,0.817,���k��,3.7,��
2018/04/09,20:30,0.866,1.446,0.900,1.681,1.157,0.483,0.852,0.817,���k��,2.6,��
2018/04/09,20:40,0.866,1.445,0.901,1.680,1.157,0.481,0.853,0.817,���k��,2.6,��
2018/04/09,20:50,0.864,1.443,0.900,1.681,1.156,0.484,0.854,0.819,���k��,4.0,��
2018/04/09,21:00,0.866,1.443,0.901,1.680,1.157,0.482,0.853,0.818,���k��,6.9,��
2018/04/09,21:10,0.863,1.446,0.901,1.680,1.157,0.484,0.852,0.817,�k��,6.5,��
2018/04/09,21:20,0.868,1.445,0.902,1.678,1.156,0.483,0.852,0.819,�k��,5.4,��
2018/04/09,21:30,0.866,1.444,0.902,1.681,1.156,0.483,0.853,0.816,�k��,4.2,��
2018/04/09,21:40,0.865,1.445,0.900,1.680,1.156,0.483,0.851,0.816,�k��,4.7,��
2018/04/09,21:50,0.866,1.445,0.900,1.679,1.157,0.483,0.852,0.815,���k��,3.8,��
2018/04/09,22:00,0.864,1.444,0.900,1.678,1.153,0.481,0.852,0.817,�k��,3.9,��
2018/04/09,22:10,0.865,1.443,0.899,1.677,1.157,0.483,0.854,0.819,�k��,4.3,��
2018/04/09,22:20,0.865,1.446,0.901,1.678,1.152,0.483,0.852,0.817,�k�k��,3.2,��
2018/04/09,22:30,0.866,1.444,0.898,1.678,1.156,0.483,0.854,0.818,�k�k��,3.1,��
2018/04/09,22:40,0.866,1.444,0.901,1.680,1.154,0.482,0.852,0.817,�k,2.6,��
2018/04/09,22:50,0.865,1.443,0.899,1.680,1.154,0.482,0.853,0.818,�k�k��,3.4,��
2018/04/09,23:00,0.863,1.446,0.899,1.677,1.153,0.481,0.851,0.818,�k�k��,2.8,��
2018/04/09,23:10,0.865,1.444,0.898,1.676,1.155,0.480,0.851,0.819,�k�k��,1.7,��
2018/04/09,23:20,0.864,1.444,0.899,1.676,1.153,0.483,0.850,0.817,�k��,1.7,��
2018/04/09,23:30,0.865,1.443,0.900,1.677,1.156,0.483,0.851,0.816,�k�k��,1.5,��
2018/04/09,23:40,0.865,1.443,0.897,1.676,1.153,0.482,0.851,0.817,���k��,1.2,��
2018/04/09,23:50,0.860,1.443,0.899,1.677,1.155,0.482,0.849,0.818,���k��,1.5,��
